Volver al catálogo

XM-2

ActivoComunicacionesGEO
NORAD 26724·PAYLOAD·🇺🇸 United States

Lanzado Mar 18, 2001 desde Sea Launch Platform

Loading…

TLE

ActualizadoSource: Space-Track

Época: Sep 14, 2026, 12:26 UTC

1 26724U 01012A   26257.51862867  .00000046  00000-0  00000-0 0  9990
2 26724   9.7922  55.5754 0009351 128.0736  71.2907  0.99079240 43124

Sigue XM-2 en tiempo real con AllMySat

Download on the App Store